Location: River House Observatory
(37.8577°N, 76.3548°W)
Time: 15:36:53
(UTC-04:00)

NOSS 3-1 (C) - Visible Passes

Search period start: 31 July 2014 00:00
Search period end: 10 August 2014 00:00
Orbit: 900 x 1310 km, 63.4° (Epoch: 17 July)

Date Brightness Start Highest point End Pass type
(mag) Time Alt. Az. Time Alt. Az. Time Alt. Az.
31 Jul 6.5 01:12:37 10° N 01:16:19 14° NNE 01:20:08 10° ENE visible
31 Jul 4.8 03:01:51 10° NNW 03:09:05 50° NE 03:16:49 10° SE visible
31 Jul 4.4 04:53:01 10° NW 04:59:57 38° WSW 05:07:14 10° S visible
31 Jul 6.2 20:36:30 10° W 20:40:58 20° NW 20:45:43 10° N visible
01 Aug 6.6 00:28:58 10° NNE 00:30:09 10° NNE 00:31:20 10° NNE visible
01 Aug 5.4 02:16:54 10° NNW 02:23:33 34° NE 02:30:37 10° ESE visible
01 Aug 4.0 04:07:26 10° NW 04:14:53 60° WSW 04:22:48 10° SSE visible
02 Aug 5.8 01:32:04 10° NNW 01:37:51 24° NE 01:43:57 10° E visible
02 Aug 3.9 03:22:06 10° NNW 03:29:42 90° WSW 03:37:49 10° SSE visible
02 Aug 5.2 05:15:05 10° WNW 05:19:54 18° WSW 05:24:51 10° SW visible
02 Aug 6.5 21:00:21 10° NW 21:02:34 12° NNW 21:04:51 10° N visible
03 Aug 6.2 00:47:24 10° N 00:51:58 17° NNE 00:56:43 10° ENE visible
03 Aug 4.4 02:36:57 10° NNW 02:44:24 62° NE 02:52:21 10° SE visible
03 Aug 4.7 04:28:36 10° NW 04:35:01 30° WSW 04:39:45 17° SSW visible
04 Aug 6.4 00:03:04 10° N 00:05:54 12° NNE 00:08:48 10° NE visible
04 Aug 5.0 01:51:56 10° NNW 01:58:57 42° NE 02:04:54 16° ESE visible
04 Aug 4.2 03:42:48 10° NW 03:50:01 47° WSW 03:52:05 39° SSW visible
05 Aug 5.5 01:07:02 10° NNW 01:13:21 29° NE 01:18:52 14° E visible
05 Aug 3.9 02:57:20 10° NW 03:04:54 73° WSW 03:06:07 63° S visible
05 Aug 5.6 04:51:45 10° W 04:53:23 12° W 04:53:23 12° W visible
06 Aug 5.9 00:22:17 10° N 00:27:34 20° NE 00:33:06 10° E visible
06 Aug 4.0 02:12:06 10° NNW 02:19:40 77° ENE 02:20:47 66° ESE visible
06 Aug 5.3 04:04:22 10° WNW 04:08:04 21° W 04:08:04 21° W visible
06 Aug 6.2 23:37:43 10° N 23:41:35 15° NNE 23:45:36 10° ENE visible
07 Aug 4.5 01:27:01 10° NNW 01:34:18 52° NE 01:35:46 46° E visible
07 Aug 4.8 03:18:16 10° NW 03:23:05 32° W 03:23:05 32° W visible
07 Aug 6.3 22:53:50 10° N 22:55:26 11° NNE 22:57:05 10° NE visible
08 Aug 5.1 00:42:03 10° NNW 00:48:47 35° NE 00:51:00 30° ENE visible
08 Aug 4.4 02:32:38 10° NW 02:38:20 48° WNW 02:38:20 48° WNW visible
08 Aug 5.6 23:57:13 10° NNW 00:03:06 25° NE 00:06:23 19° ENE visible
09 Aug 4.1 01:47:17 10° NNW 01:53:43 68° NW 01:53:43 68° NW visible
09 Aug 5.9 03:40:29 10° WNW 03:41:04 11° WNW 03:41:04 11° WNW visible
09 Aug 5.9 23:12:31 10° N 23:17:14 18° NE 23:21:53 11° ENE visible
